{"data":{"norad_id":36110,"intl_designator":"2009-069A","name":"YAOGAN-7","alt_names":[],"object_type":"PAYLOAD","status":"ACTIVE","operator":null,"country":"PRC","launch_date":"2009-12-09","launch_site_code":"JSC","launch_vehicle":null,"mission":null,"orbit_class":"UNKNOWN","rcs_meters":3.3259,"size_class":null,"mass_kg":null,"dimensions":null,"purposes":["earth_obs"],"wikipedia_slug":null,"has_3d_model":false,"image_url":null,"decayed_at":null,"tle_current":{"epoch":"2026-05-25T03:19:21.825120Z","epoch_age_seconds":59150,"freshness":"FRESH","line1":"1 36110U 09069A   26145.13844705  .00000400  00000+0  62481-4 0  9993","line2":"2 36110  98.0101  31.1448 0025888 112.3159 248.0799 14.77982370886229","mean_motion":14.7798237,"eccentricity":0.0025888,"inclination_deg":98.0101,"raan_deg":31.1448,"arg_perigee_deg":112.3159,"mean_anomaly_deg":248.0799,"bstar":6.2481e-5,"rev_number":88622,"period_min":97.430120225318,"perigee_km":617.5426347105,"apogee_km":653.85747745207,"semimajor_km":7013.8370560813,"source":"CELESTRAK","updated_at":"2026-05-25T13:38:12.777443Z"}}}